map of PRH home
PRH - Airport
Location
City:  Phrae, Phrae, Thailand
ICAO:VTCP
IATA:PRH

Details
Type:Airport (Aerodrome, Airfield)
Use:Public/Civil
Latitude:1807'56"N (18.132169)
Longitude:10009'53"E (100.164664)
Datum:WGS 1984
Elevation:538 ft (164 m)
Variation:0.76W (WMM2015 magnetic declination)
0.01 annual change
Runways:1
Longest:4921 × 98 ft (1500 × 30 m), paved

Time
Time Zone:UTC+7
Local Time:

Weather
METAR:VTCP 150100Z 00000KT 5000 BR NSC 19/19 Q1019 BECMG FM0200 6000
TAF:VTCP 142300Z 1500/1524 36005KT 4000 BR NSC
BECMG 1501/1503 9999 NSW FEW025

Related Locations
Nearby:
Farthest:SJA: 12078 mi / 19438 km
San Juan de Marcona [San Juan de Marcona Airport], ICA, PE

Find:

   beyond  
but within

Other Information
Maps:
NOTAMs:
Links:
Sources:

  
  • flag of Thailand
  

Sectional Chart

Flight Planning
at skyvector.com

Satellite Image

Google Maps Satellite view

 

Copyright © 2004-2018 Karl L. Swartz. All rights reserved.
The Great Circle Mapper name and logo are trademarks of the Great Circle Mapper.
All other trademarks mentioned herein belong to their respective owners.
Please see credits for attibutions and further copyright information.

  Follow gcmap on Facebook Follow gcmap on Twitter Follow gcmap on Google+ GCmap on LinkedIn

hCard Microformat

Geo Microformat